• în Republica Moldova
  • Lista ţărilor
  • Pe 7 zile
  • Temperatura apei
  • Hartă satelitară
  • Meteo pe hartă
  • Widget-uri
  • user-avatar
    Intrare

    Meteo pe oră la Djelfa

    Astăzi, 22 Iunie, Vineri

    Timp Temperatura Precipitaţii Vânt Presiune Umiditate
    00:00 +25°C° 0 mm 1 m/s 666 mmHg 44%
    01:00 +24°C° 0 mm 1 m/s 666 mmHg 46%
    02:00 +24°C° 0 mm 1 m/s 666 mmHg 48%
    03:00 +23°C° 0 mm 1 m/s 666 mmHg 49%
    04:00 +23°C° 0 mm 1 m/s 666 mmHg 48%
    05:00 +24°C° 0 mm 1 m/s 666 mmHg 46%
    06:00 +24°C° 0 mm 1 m/s 666 mmHg 44%
    07:00 +26°C° 0 mm 2 m/s 667 mmHg 39%
    08:00 +27°C° 0 mm 3 m/s 667 mmHg 35%
    09:00 +29°C° 0 mm 4 m/s 668 mmHg 30%
    10:00 +30°C° 0 mm 4 m/s 668 mmHg 27%
    11:00 +32°C° 0 mm 4 m/s 668 mmHg 24%
    12:00 +33°C° 0 mm 4 m/s 668 mmHg 21%
    13:00 +34°C° 0 mm 5 m/s 668 mmHg 20%
    14:00 +34°C° 0 mm 5 m/s 667 mmHg 19%
    15:00 +35°C° 0 mm 5 m/s 667 mmHg 17%
    16:00 +34°C° 0,2 mm 5 m/s 667 mmHg 18%
    17:00 +34°C° 0,2 mm 5 m/s 667 mmHg 18%
    18:00 +33°C° 0,2 mm 4 m/s 667 mmHg 18%
    19:00 +32°C° 0,5 mm 4 m/s 667 mmHg 20%
    20:00 +30°C° 0,5 mm 3 m/s 668 mmHg 22%
    21:00 +29°C° 0,5 mm 2 m/s 668 mmHg 24%
    22:00 +29°C° 0 mm 2 m/s 668 mmHg 27%
    23:00 +28°C° 0 mm 3 m/s 668 mmHg 29%

    Mâine, 23 Iunie, Sâmbătă

    Timp Temperatura Precipitaţii Vânt Presiune Umiditate
    00:00 +28°C° 0 mm 3 m/s 668 mmHg 32%
    01:00 +27°C° 0 mm 2 m/s 668 mmHg 36%
    02:00 +26°C° 0 mm 2 m/s 667 mmHg 40%
    03:00 +26°C° 0 mm 2 m/s 667 mmHg 45%
    04:00 +26°C° 0 mm 2 m/s 667 mmHg 42%
    05:00 +26°C° 0 mm 1 m/s 667 mmHg 40%
    06:00 +26°C° 0 mm 1 m/s 667 mmHg 38%
    07:00 +28°C° 0 mm 1 m/s 668 mmHg 33%
    08:00 +29°C° 0 mm 2 m/s 668 mmHg 29%
    09:00 +30°C° 0 mm 2 m/s 669 mmHg 25%
    10:00 +31°C° 0 mm 2 m/s 669 mmHg 22%
    11:00 +34°C° 0 mm 3 m/s 669 mmHg 20%
    12:00 +35°C° 0 mm 4 m/s 669 mmHg 17%
    13:00 +35°C° 0 mm 4 m/s 669 mmHg 17%
    14:00 +36°C° 0 mm 5 m/s 668 mmHg 16%
    15:00 +36°C° 0 mm 5 m/s 668 mmHg 15%
    16:00 +36°C° 0 mm 6 m/s 668 mmHg 15%
    17:00 +35°C° 0 mm 6 m/s 668 mmHg 16%
    18:00 +34°C° 0 mm 6 m/s 668 mmHg 16%
    19:00 +33°C° 0,5 mm 4 m/s 668 mmHg 19%
    20:00 +31°C° 0,5 mm 3 m/s 668 mmHg 22%
    21:00 +29°C° 0,5 mm 2 m/s 668 mmHg 24%
    22:00 +29°C° 0,1 mm 2 m/s 668 mmHg 25%
    23:00 +28°C° 0,1 mm 3 m/s 668 mmHg 26%

    Poimâine, 24 Iunie, Duminică

    Timp Temperatura Precipitaţii Vânt Presiune Umiditate
    00:00 +28°C° 0,1 mm 3 m/s 668 mmHg 27%
    01:00 +27°C° 0 mm 2 m/s 668 mmHg 29%
    02:00 +27°C° 0 mm 2 m/s 667 mmHg 31%
    03:00 +26°C° 0 mm 1 m/s 667 mmHg 34%
    04:00 +26°C° 0,1 mm 1 m/s 667 mmHg 33%
    05:00 +26°C° 0,1 mm 1 m/s 667 mmHg 32%
    06:00 +27°C° 0,1 mm 1 m/s 668 mmHg 31%
    07:00 +28°C° 0 mm 1 m/s 668 mmHg 28%
    08:00 +30°C° 0 mm 2 m/s 668 mmHg 24%
    09:00 +31°C° 0 mm 2 m/s 669 mmHg 21%
    10:00 +34°C° 0 mm 3 m/s 669 mmHg 19%
    11:00 +35°C° 0 mm 3 m/s 669 mmHg 17%
    12:00 +36°C° 0 mm 4 m/s 669 mmHg 15%
    13:00 +37°C° 0 mm 4 m/s 668 mmHg 13%
    14:00 +37°C° 0 mm 5 m/s 668 mmHg 12%
    15:00 +39°C° 0 mm 6 m/s 667 mmHg 11%
    16:00 +39°C° 0 mm 6 m/s 667 mmHg 11%
    17:00 +38°C° 0 mm 6 m/s 667 mmHg 12%
    18:00 +38°C° 0 mm 6 m/s 667 mmHg 12%
    19:00 +35°C° 0 mm 5 m/s 667 mmHg 15%
    20:00 +34°C° 0 mm 5 m/s 667 mmHg 17%
    21:00 +33°C° 0 mm 4 m/s 667 mmHg 20%
    22:00 +32°C° 0 mm 4 m/s 667 mmHg 22%
    23:00 +30°C° 0 mm 3 m/s 667 mmHg 25%

    25 Iunie, Luni

    Timp Temperatura Precipitaţii Vânt Presiune Umiditate
    00:00 +29°C° 0 mm 3 m/s 667 mmHg 28%
    01:00 +28°C° 0 mm 2 m/s 666 mmHg 30%
    02:00 +27°C° 0 mm 2 m/s 666 mmHg 32%
    03:00 +27°C° 0 mm 1 m/s 665 mmHg 34%
    04:00 +27°C° 0 mm 1 m/s 666 mmHg 33%
    05:00 +27°C° 0 mm 1 m/s 666 mmHg 33%
    06:00 +28°C° 0 mm 1 m/s 666 mmHg 32%
    07:00 +29°C° 0 mm 1 m/s 666 mmHg 29%
    08:00 +30°C° 0 mm 2 m/s 667 mmHg 25%
    09:00 +31°C° 0 mm 2 m/s 667 mmHg 21%
    10:00 +34°C° 0 mm 2 m/s 667 mmHg 18%
    11:00 +35°C° 0 mm 3 m/s 668 mmHg 16%
    12:00 +36°C° 0 mm 3 m/s 668 mmHg 13%
    13:00 +36°C° 0 mm 4 m/s 667 mmHg 12%
    14:00 +37°C° 0 mm 5 m/s 667 mmHg 11%
    15:00 +39°C° 0 mm 5 m/s 667 mmHg 10%
    16:00 +38°C° 0 mm 6 m/s 667 mmHg 11%
    17:00 +38°C° 0 mm 6 m/s 667 mmHg 12%
    18:00 +36°C° 0 mm 6 m/s 667 mmHg 13%
    19:00 +35°C° 0 mm 6 m/s 667 mmHg 16%
    20:00 +33°C° 0 mm 6 m/s 667 mmHg 19%
    21:00 +32°C° 0 mm 5 m/s 667 mmHg 23%
    22:00 +30°C° 0 mm 4 m/s 667 mmHg 25%
    23:00 +29°C° 0 mm 4 m/s 667 mmHg 27%

    26 Iunie, Marţi

    Timp Temperatura Precipitaţii Vânt Presiune Umiditate
    00:00 +28°C° 0 mm 3 m/s 667 mmHg 29%
    01:00 +27°C° 0 mm 2 m/s 666 mmHg 31%
    02:00 +27°C° 0 mm 2 m/s 666 mmHg 33%
    03:00 +26°C° 0 mm 1 m/s 666 mmHg 34%
    04:00 +26°C° 0 mm 1 m/s 666 mmHg 34%
    05:00 +26°C° 0 mm 1 m/s 666 mmHg 33%
    06:00 +27°C° 0 mm 1 m/s 667 mmHg 33%
    07:00 +28°C° 0 mm 1 m/s 667 mmHg 30%
    08:00 +29°C° 0 mm 1 m/s 667 mmHg 27%
    09:00 +30°C° 0 mm 1 m/s 668 mmHg 25%
    10:00 +31°C° 0 mm 2 m/s 667 mmHg 22%
    11:00 +32°C° 0 mm 2 m/s 667 mmHg 20%
    12:00 +34°C° 0 mm 2 m/s 667 mmHg 18%
    13:00 +35°C° 0 mm 2 m/s 667 mmHg 17%
    14:00 +36°C° 0 mm 2 m/s 667 mmHg 16%
    15:00 +36°C° 0 mm 3 m/s 667 mmHg 15%
    16:00 +36°C° 0 mm 3 m/s 667 mmHg 15%
    17:00 +36°C° 0 mm 3 m/s 666 mmHg 15%
    18:00 +36°C° 0 mm 3 m/s 666 mmHg 14%
    19:00 +35°C° 0,1 mm 4 m/s 666 mmHg 16%
    20:00 +34°C° 0,1 mm 5 m/s 666 mmHg 19%
    21:00 +33°C° 0,1 mm 5 m/s 666 mmHg 21%
    22:00 +32°C° 0 mm 5 m/s 666 mmHg 23%
    23:00 +30°C° 0 mm 5 m/s 666 mmHg 25%

    27 Iunie, Miercuri

    Timp Temperatura Precipitaţii Vânt Presiune Umiditate
    00:00 +29°C° 0 mm 4 m/s 666 mmHg 28%
    01:00 +28°C° 0 mm 4 m/s 666 mmHg 29%
    02:00 +28°C° 0 mm 3 m/s 666 mmHg 30%
    03:00 +27°C° 0 mm 2 m/s 666 mmHg 32%
    04:00 +27°C° 0,2 mm 2 m/s 666 mmHg 31%
    05:00 +27°C° 0,2 mm 2 m/s 666 mmHg 31%
    06:00 +27°C° 0,2 mm 2 m/s 666 mmHg 31%
    07:00 +28°C° 0,2 mm 3 m/s 667 mmHg 29%
    08:00 +29°C° 0,2 mm 3 m/s 667 mmHg 26%
    09:00 +32°C° 0,2 mm 4 m/s 667 mmHg 24%
    10:00 +33°C° 0,1 mm 4 m/s 667 mmHg 23%
    11:00 +33°C° 0,1 mm 4 m/s 667 mmHg 22%
    12:00 +34°C° 0,1 mm 4 m/s 667 mmHg 21%
    13:00 +35°C° 0 mm 4 m/s 667 mmHg 20%
    14:00 +35°C° 0 mm 4 m/s 666 mmHg 19%
    15:00 +36°C° 0 mm 4 m/s 666 mmHg 18%
    16:00 +35°C° 0,1 mm 5 m/s 666 mmHg 18%
    17:00 +35°C° 0,1 mm 5 m/s 666 mmHg 19%
    18:00 +34°C° 0,1 mm 6 m/s 666 mmHg 19%
    19:00 +33°C° 0 mm 7 m/s 666 mmHg 22%
    20:00 +32°C° 0 mm 7 m/s 666 mmHg 24%
    21:00 +31°C° 0 mm 8 m/s 666 mmHg 27%
    22:00 +29°C° 0 mm 7 m/s 666 mmHg 30%
    23:00 +28°C° 0 mm 6 m/s 666 mmHg 32%
    Arată mai mult